This is the latest recevied weather packets stored in our database for station/object HB9FHL-13. If no packets are shown the sender has not sent any weather packets the latest 10 day(s).
| Time | Temp. | Humidity | Pressure | Rain* | Wind** | Luminosity | Snow |
|---|---|---|---|---|---|---|---|
| 1787882296 | 25.56° C | - | 1014 hPa | 0 mm | - | - | - |
| 1787881995 | 26.67° C | - | 1009.4 hPa | 0 mm | - | - | - |
| 1787881694 | 26.11° C | - | 1013.2 hPa | 0 mm | - | - | - |
| 1787881427 | 25.56° C | - | 1012.7 hPa | 0 mm | - | - | - |
| 1787881393 | 25.56° C | - | 1012.7 hPa | 0 mm | - | - | - |
| 1787881088 | 26.67° C | - | 1012.2 hPa | 0 mm | - | - | - |
| 1787880187 | 27.78° C | - | 1010 hPa | 0 mm | - | - | - |
| 1787879887 | 28.89° C | - | 1016.8 hPa | 0 mm | - | - | - |
| 1787879586 | 28.33° C | - | 1020.6 hPa | 0 mm | - | - | - |
| 1787879285 | 29.44° C | - | 1008.3 hPa | 0 mm | - | - | - |
| 1787878985 | 28.89° C | - | 1011.6 hPa | 0 mm | - | - | - |
| 1787878684 | 27.78° C | - | 1015.5 hPa | 0 mm | - | - | - |
| 1787878384 | 27.22° C | - | 1015.7 hPa | 0 mm | - | - | - |
| 1787878084 | 27.22° C | - | 1014.3 hPa | 0 mm | - | - | - |
| 1787877783 | 27.22° C | - | 1010.4 hPa | 0 mm | - | - | - |
| 1787877483 | 28.33° C | - | 1015.2 hPa | 0 mm | - | - | - |
| 1787877182 | 28.89° C | - | 1009.9 hPa | 0 mm | - | - | - |
| 1787876882 | 28.89° C | - | 1008 hPa | 0 mm | - | - | - |
| 1787876581 | 27.78° C | - | 1016.3 hPa | 0 mm | - | - | - |
| 1787876280 | 28.89° C | - | 1008.9 hPa | 0 mm | - | - | - |
| 1787875980 | 28.33° C | - | 1010.8 hPa | 0 mm | - | - | - |
| 1787875679 | 28.33° C | - | 1004.4 hPa | 0 mm | - | - | - |
| 1787875379 | 28.33° C | - | 1009.4 hPa | 0 mm | - | - | - |
| 1787875076 | 28.89° C | - | 1008 hPa | 0 mm | - | - | - |
| 1787874775 | 27.78° C | - | 1015.6 hPa | 0 mm | - | - | - |
* Rain since midnight (hover to see other rain measurements)
** Current wind speed in m/s (hover to see current wind gust speed)